Theta_e
308 308 309 309 309 309 309 309 309 309 310 309 310 310 309 309 308 306 307 304 306 306 310 311 312 309 310 309 310 310 314 317 320 321 322 320 319 319 318 321 321 324 324 322 325
308 309 308 309 309 308 308 309 309 309 309 310 309 309 309 308 308 308 307 304 311 306 308 310 308 306 307 310 309 309 309 313 316 318 320 318 316 316 319 317 319 320 322 323 333
308 308 308 309 308 309 309 309 310 309 309 310 310 308 309 309 310 316 316 305 313 313 310 309 308 307 307 310 310 309 311 312 314 314 314 315 315 317 318 316 317 318 322 322 326
307 308 309 308 309 310 310 310 310 310 310 310 309 308 310 311 318 316 312 307 308 313 311 307 309 308 307 308 309 313 311 313 314 314 314 315 315 315 315 315 315 315 319 320 323
305 307 307 308 307 308 309 309 309 310 308 308 308 308 310 311 313 317 312 310 315 313 309 308 310 307 308 307 307 310 310 310 311 310 311 312 313 314 313 313 313 313 316 319 323
304 304 304 306 306 307 307 308 309 307 309 306 307 310 312 309 315 318 310 313 309 308 310 313 312 307 308 307 308 308 309 309 309 309 310 312 311 312 314 314 313 313 313 317 318
305 304 304 303 305 305 306 308 308 309 305 303 306 311 311 305 311 316 308 309 309 313 313 315 315 312 309 310 308 310 310 309 310 311 311 310 311 311 312 313 314 315 315 317 316
306 305 304 302 305 306 307 308 308 309 307 305 309 312 307 306 315 313 310 311 313 313 314 316 314 309 310 308 307 310 307 309 309 311 311 311 312 312 312 312 313 313 314 319 320
306 306 305 304 304 306 306 307 309 309 309 307 311 311 314 313 318 317 313 314 315 314 314 314 309 306 306 306 306 305 309 309 309 309 310 311 311 311 311 311 311 310 311 312 315
309 309 307 305 302 306 307 309 312 312 312 312 312 313 313 317 317 317 317 315 315 312 309 308 304 306 303 304 304 308 309 309 309 310 310 309 309 309 309 309 309 309 309 310 312
310 310 309 305 304 305 308 309 309 310 314 312 315 312 314 316 317 312 314 314 313 309 308 307 306 307 307 306 307 309 308 309 309 308 310 309 309 309 309 308 308 308 309 308 308
310 310 310 307 306 304 308 308 312 312 313 313 313 313 314 316 316 317 312 310 309 308 308 307 308 307 308 308 308 308 309 309 309 309 308 309 309 308 309 309 309 310 309 309 308
308 309 311 309 306 306 310 312 312 313 313 314 313 314 314 315 316 317 311 310 310 309 308 307 309 309 310 310 311 310 310 311 311 311 310 310 309 310 310 310 309 310 309 308 309
308 308 309 310 306 309 309 311 313 312 315 318 316 316 315 315 316 317 313 311 310 309 307 307 308 309 308 310 309 310 309 310 311 311 309 310 311 309 309 309 309 309 307 307 307
307 307 308 309 307 307 312 313 314 314 324 321 316 315 314 315 314 313 312 311 310 310 309 310 310 309 310 309 309 309 309 309 310 309 308 309 308 307 309 309 308 307 307 307 307
306 307 308 309 308 307 312 314 315 320 325 323 312 314 316 314 313 312 312 311 311 310 308 308 309 309 308 310 309 311 311 307 305 305 308 308 308 309 308 309 308 309 308 308 308
307 308 309 308 306 311 311 313 316 324 319 319 316 314 312 312 313 313 313 311 311 311 309 310 310 309 310 310 310 309 308 310 311 310 313 309 308 310 308 308 308 309 309 309 309
308 310 310 308 307 307 313 315 322 315 316 316 316 316 316 314 314 315 314 312 311 309 309 310 312 310 311 310 311 307 307 310 316 313 314 313 310 309 308 310 311 311 310 309 308
308 309 307 313 312 309 310 317 311 318 315 315 316 316 315 315 315 314 314 314 313 309 311 310 312 312 312 311 309 311 309 308 310 315 316 314 313 314 313 312 312 314 311 311 310
307 304 309 315 309 311 307 309 314 314 314 315 316 316 317 315 315 315 314 315 316 314 312 313 314 313 313 313 312 313 313 316 315 320 318 315 318 316 314 313 315 314 313 310 310
307 305 310 311 313 310 313 311 316 314 313 314 316 315 313 313 313 314 315 313 313 313 312 312 312 314 313 313 314 313 315 317 317 319 324 324 317 310 311 313 314 313 312 312 311
305 309 310 311 314 308 315 314 314 314 312 311 312 312 311 312 311 314 315 314 313 316 316 312 314 317 316 312 314 315 316 319 321 322 320 315 318 313 311 313 314 312 312 312 312
304 304 310 310 313 310 309 313 312 312 311 311 313 311 310 311 311 311 313 312 310 315 317 313 314 320 318 314 314 317 318 317 316 315 317 319 317 312 312 312 312 312 313 313 315
303 309 303 304 307 309 310 312 312 311 312 312 312 311 311 310 309 312 310 309 309 310 313 313 314 316 320 317 315 317 317 317 317 318 314 316 316 314 314 313 312 311 312 313 314
300 304 303 304 306 310 311 312 313 314 311 310 312 312 311 311 309 309 309 308 308 309 310 313 315 315 316 315 313 313 315 316 317 316 317 314 314 313 312 313 312 311 312 315 314
303 303 301 303 303 308 311 311 314 314 313 312 311 311 310 310 308 308 307 307 307 308 311 309 310 312 313 312 313 316 313 312 314 314 314 314 315 310 309 312 314 311 312 313 312
302 303 304 307 307 309 310 311 313 311 311 311 310 310 310 309 308 307 307 308 306 307 307 308 309 311 311 310 311 312 311 310 311 313 313 315 313 310 312 313 313 311 312 311 309
Wind_Speed
18 17 16 15 14 14 14 14 14 13 12 12 12 12 12 13 15 10 7 9 4 11 5 2 2 6 4 2 3 4 4 4 6 6 4 3 6 4 4 1 5 5 2 6 11
18 17 16 16 14 13 13 13 13 13 12 12 11 11 10 12 13 10 9 8 5 14 5 3 4 5 3 2 1 4 4 8 5 4 3 1 3 4 5 8 2 3 4 1 7
19 18 16 15 14 13 12 13 12 12 12 12 11 10 9 10 3 5 2 11 12 9 6 3 4 3 3 2 3 4 6 4 4 5 3 3 4 3 2 7 6 4 4 4 2
20 18 17 14 13 13 12 12 11 11 11 10 10 8 8 2 3 3 2 14 13 9 5 4 4 4 4 5 4 3 5 5 3 4 4 5 4 3 5 10 7 8 4 5 7
23 20 18 16 13 11 11 11 10 11 9 8 7 5 3 2 7 3 7 15 13 10 6 4 4 4 5 3 5 4 4 4 7 8 6 6 9 8 6 12 12 10 6 11 11
26 24 20 17 14 12 11 10 10 8 8 5 3 2 2 3 2 2 8 12 10 10 8 6 6 5 3 2 4 4 2 5 5 6 5 5 8 5 4 9 10 8 11 9 12
31 26 21 17 14 12 10 10 8 8 6 2 1 1 2 8 4 6 9 8 12 9 4 6 4 4 4 2 2 0 2 4 4 3 6 4 8 5 7 6 9 10 9 7 9
34 29 23 17 13 12 11 11 10 7 4 1 3 2 6 4 2 6 10 6 7 10 9 7 5 1 2 4 5 3 4 2 4 2 6 7 9 6 4 3 8 10 8 8 6
35 35 29 21 14 12 12 14 13 5 2 3 3 2 7 4 6 9 10 4 4 5 9 4 4 3 5 4 5 6 3 2 7 3 4 5 5 5 1 1 6 8 9 9 8
34 39 35 23 18 14 13 8 4 6 5 3 2 2 6 3 4 6 12 10 2 4 2 4 5 3 4 4 4 3 1 3 4 4 3 7 6 8 8 4 7 7 8 9 10
43 40 40 25 16 15 12 3 2 1 4 7 5 4 4 6 3 7 7 7 1 3 3 3 4 5 9 7 5 2 4 5 6 10 3 8 6 9 9 8 10 8 7 7 9
42 43 43 33 16 14 6 1 2 2 7 11 8 6 8 2 4 2 9 5 5 5 3 5 5 9 5 4 5 5 4 7 9 13 7 8 8 8 7 6 6 7 10 7 7
42 44 44 36 14 6 3 4 3 7 2 6 5 5 5 9 6 6 8 4 4 4 5 6 7 5 6 3 4 4 5 5 8 4 3 2 4 6 5 4 7 7 7 7 8
42 45 44 40 3 1 4 1 12 6 3 4 3 5 5 7 4 12 13 6 2 8 8 5 5 6 4 5 6 4 8 7 5 1 5 4 10 4 5 6 6 9 9 10 10
44 43 43 31 10 3 2 9 2 2 4 2 2 8 4 7 2 2 6 4 8 5 6 8 3 3 4 9 6 9 5 6 5 4 2 3 1 7 3 5 10 8 10 10 10
45 42 42 13 7 9 5 6 3 4 5 1 4 5 5 2 2 2 3 4 3 6 3 9 1 6 7 2 7 3 1 5 4 3 3 7 6 5 5 8 6 5 9 10 9
47 40 30 10 3 6 7 3 4 3 5 6 4 1 3 4 3 3 2 3 5 1 5 3 10 5 4 5 5 4 5 4 4 3 10 8 6 11 6 9 8 10 12 10 9
44 32 16 11 1 7 0 4 3 3 2 3 3 6 2 1 0 2 3 2 5 4 2 5 10 6 4 9 12 7 8 5 6 4 8 3 6 6 7 6 6 5 9 10 8
43 20 7 10 7 5 4 2 5 2 3 4 6 2 1 2 3 4 1 3 3 4 5 3 6 4 5 6 10 3 4 4 2 2 2 5 6 6 5 4 5 7 8 7 7
22 11 10 12 8 1 4 4 2 1 4 2 1 4 3 5 4 3 1 1 4 1 2 3 4 5 6 2 0 3 5 1 1 4 6 4 3 5 6 4 5 8 8 7 7
6 4 7 13 6 4 2 4 3 2 4 1 3 5 5 4 3 3 4 3 4 4 4 1 2 6 1 4 5 1 2 4 3 2 4 8 5 5 3 3 6 8 7 7 8
5 3 14 10 3 2 1 5 7 5 6 5 4 4 3 7 5 3 3 4 7 4 3 5 4 5 11 3 3 1 3 4 4 4 4 2 10 3 4 4 6 9 9 7 7
2 2 9 6 2 3 6 5 4 7 5 5 4 6 5 3 4 3 2 8 7 5 2 4 1 2 6 1 1 3 2 3 4 3 6 5 7 2 7 7 10 9 8 7 9
2 4 4 4 2 3 5 5 7 9 2 6 6 1 5 3 3 7 10 5 1 5 11 4 2 4 6 3 2 6 5 7 6 3 4 7 16 13 14 12 14 10 7 7 6
4 1 1 4 3 2 2 2 4 5 8 4 2 2 3 4 8 10 11 6 10 16 8 6 6 8 13 16 13 13 13 10 8 9 8 13 9 14 6 9 7 5 6 7 6
2 3 4 3 4 3 2 2 5 8 3 5 4 7 7 6 12 15 11 8 9 5 4 3 4 3 7 11 10 13 10 9 13 13 10 11 14 2 5 6 11 8 7 5 7
2 1 1 3 4 2 3 3 3 10 8 11 7 12 11 12 7 13 13 13 10 5 6 4 4 2 4 1 4 5 6 6 4 3 3 4 5 3 5 7 9 11 9 4 5
Wind_Direction
333 331 327 323 320 316 314 310 308 306 304 305 307 308 311 314 312 300 240 232 247 204 170 122 159 146 127 105 109 121 79 194 215 167 235 333 18 332 304 12 307 332 261 242 167
338 334 330 324 318 314 312 309 307 306 303 303 304 308 310 318 313 259 263 218 139 179 188 141 136 129 64 98 59 105 143 213 218 203 260 321 320 322 350 337 182 299 328 102 140
341 336 332 328 321 316 312 309 305 305 304 302 301 301 312 323 294 244 351 183 166 151 119 118 122 108 100 121 179 155 184 212 250 234 244 274 286 217 240 293 221 286 278 271 292
341 339 334 329 323 315 311 309 305 306 301 298 293 303 317 311 132 4 4 166 170 168 151 117 78 91 125 170 184 142 231 198 254 240 284 270 269 291 204 255 255 256 195 238 235
347 342 336 330 323 318 316 314 311 304 300 296 294 312 320 297 253 351 120 149 151 160 161 138 129 138 161 191 148 181 240 217 243 273 246 268 260 248 240 260 270 260 202 209 218
357 348 341 335 329 333 334 333 326 319 303 302 281 324 299 293 334 210 152 152 163 158 167 160 179 196 163 194 169 210 225 284 293 262 243 235 261 142 281 266 285 288 273 210 209
358 349 341 336 333 330 332 330 326 318 322 292 187 90 298 234 318 170 169 166 168 168 162 212 180 143 146 136 207 226 321 333 248 237 244 172 293 202 243 270 280 290 284 263 217
2 356 342 334 330 328 324 317 306 293 297 261 162 162 249 270 285 193 190 208 207 225 239 268 196 135 122 129 24 75 44 360 279 224 255 147 273 286 274 247 284 293 299 297 254
12 4 354 337 326 324 322 316 303 242 220 166 163 183 272 284 263 240 215 204 166 232 235 244 109 92 33 78 15 8 229 227 309 248 271 175 278 262 317 1 273 288 294 295 281
9 9 0 344 325 319 329 344 59 120 115 136 262 317 268 199 255 216 222 230 287 354 77 66 52 79 45 77 220 224 260 260 252 274 199 288 251 286 296 326 283 272 271 274 276
357 1 2 346 325 313 332 290 24 324 203 211 193 254 278 303 276 219 180 134 146 58 156 19 87 207 218 198 178 191 207 242 255 260 229 253 253 264 284 316 307 298 287 270 269
354 355 357 354 323 304 314 214 194 260 300 227 241 247 265 344 331 290 168 141 141 202 102 28 236 230 195 185 207 215 247 261 277 261 169 260 258 253 244 246 228 279 302 297 293
353 352 352 352 322 293 233 248 279 309 251 292 184 193 202 148 215 252 155 152 163 162 181 170 235 116 175 233 201 209 189 237 227 308 264 326 293 250 255 266 287 273 232 262 268
348 347 347 346 339 308 258 307 321 174 9 267 246 257 136 144 252 210 179 146 167 205 154 226 258 203 185 225 166 252 220 242 253 168 242 125 282 238 240 255 269 278 294 286 288
342 341 337 336 292 231 195 330 356 121 343 167 179 168 165 158 269 196 168 92 198 181 124 240 199 161 188 223 144 244 219 232 252 232 57 282 292 277 229 273 269 253 263 269 268
337 334 331 326 261 237 302 331 121 41 257 329 128 162 134 239 279 101 136 88 159 173 229 241 259 183 213 257 171 225 184 45 52 89 238 231 209 191 223 240 275 267 257 263 276
335 329 320 277 243 168 350 62 49 164 316 354 5 356 211 208 215 195 183 179 196 140 247 299 251 244 166 291 283 127 81 311 312 300 264 222 238 252 234 247 227 269 302 288 269
337 334 324 274 203 258 171 58 183 266 338 3 326 302 257 58 302 134 141 266 243 200 163 199 278 177 188 194 228 185 160 181 245 242 273 29 242 247 218 252 318 317 279 294 303
338 348 1 354 228 204 79 101 213 210 306 320 309 260 306 78 45 28 290 246 271 164 179 196 265 256 224 195 151 193 177 198 175 44 340 225 295 305 279 12 356 334 358 324 322
337 345 8 356 126 91 80 234 245 276 312 342 240 46 26 1 3 359 184 276 28 354 160 252 279 253 280 143 12 171 149 121 18 294 264 239 264 243 267 255 315 342 337 338 331
3 40 1 8 328 45 169 237 290 37 5 330 28 26 36 22 338 283 259 92 10 326 291 200 63 290 225 223 220 167 177 67 96 167 261 289 253 219 249 234 285 300 282 294 302
2 56 356 5 41 24 20 325 313 355 5 34 82 81 49 8 312 276 309 24 11 349 347 348 159 226 258 323 304 86 131 150 164 213 231 240 264 309 282 251 265 296 301 301 293
40 287 352 6 51 12 322 322 344 7 37 9 98 3 58 233 270 271 291 313 41 337 345 59 213 284 306 202 67 83 111 110 96 123 216 235 274 321 303 303 298 297 303 325 324
34 14 338 26 31 62 11 336 344 349 61 8 344 351 356 286 284 272 274 277 15 324 321 114 290 217 242 265 223 272 225 206 173 206 249 232 281 294 291 304 295 281 305 320 344
22 50 154 333 5 17 106 250 296 308 338 34 303 222 320 279 299 258 269 296 308 289 265 140 230 225 237 248 263 257 254 246 208 231 234 276 266 280 323 314 318 323 320 324 344
63 20 2 288 302 306 181 252 271 269 284 282 221 315 286 247 252 278 286 275 250 253 188 173 239 220 264 256 258 256 253 255 255 255 248 263 274 100 286 328 339 307 312 327 330
41 73 86 314 328 280 218 237 297 335 269 263 327 322 295 271 305 283 260 254 242 221 195 177 167 148 257 338 319 273 239 223 231 209 180 225 238 290 306 311 293 305 310 302 332